| time (UTC) | temp C | wind direction | speed KPH | gust KPH | rain 1hr cm | rain 24hr cm | rain mn cm | humidity % | barometer mb |
| 20260504150514 | 24 | 15 | 6.4 | 3.2 | 0.00 | 0.00 | 0.00 | 39 | 1012.0 |
| 20260504140513 | 24 | 358 | 6.4 | 3.2 | 0.00 | 0.00 | 0.00 | 39 | 1013.0 |
| 20260504130511 | 24 | 351 | 6.4 | 4.8 | 0.00 | 0.00 | 0.00 | 44 | 1013.0 |
| 20260504110508 | 22 | 14 | 4.8 | 3.2 | 0.00 | 0.00 | 0.00 | 44 | 1014.0 |
| 20260504100507 | 21 | 37 | 6.4 | 4.8 | 0.00 | 0.00 | 0.00 | 46 | 1014.0 |
| 20260504082004 | 19 | 332 | 8.0 | 11.3 | 0.00 | 0.00 | 0.00 | 51 | 1015.0 |
| 20260504080503 | 18 | 332 | 8.0 | 11.3 | 0.00 | 0.00 | 0.00 | 57 | 1014.0 |
| 20260504050459 | 12 | 200 | 4.8 | 8.0 | 0.00 | 0.00 | 0.00 | 66 | 1014.0 |
| 20260504044958 | 12 | 200 | 4.8 | 8.0 | 0.00 | 0.00 | 0.00 | 72 | 1014.0 |
| 20260504043458 | 12 | 200 | 4.8 | 8.0 | 0.00 | 0.00 | 0.00 | 72 | 1014.0 |
| 20260504041958 | 12 | 158 | 8.0 | 9.7 | 0.00 | 0.00 | 0.00 | 66 | 1014.0 |
| 20260504040457 | 12 | 158 | 8.0 | 9.7 | 0.00 | 0.00 | 0.00 | 66 | 1014.0 |
| 20260504034957 | 11 | 158 | 8.0 | 9.7 | 0.00 | 0.00 | 0.00 | 71 | 1014.0 |
| 20260504033456 | 11 | 158 | 8.0 | 9.7 | 0.00 | 0.00 | 0.00 | 71 | 1014.0 |
| 20260504031956 | 12 | 161 | 8.0 | 9.7 | 0.00 | 0.00 | 0.00 | 64 | 1014.0 |
| 20260504030456 | 12 | 161 | 8.0 | 9.7 | 0.00 | 0.00 | 0.00 | 62 | 1014.0 |
| 20260504024956 | 11 | 161 | 8.0 | 9.7 | 0.00 | 0.00 | 0.00 | 68 | 1014.0 |
| 20260504023455 | 11 | 161 | 8.0 | 9.7 | 0.00 | 0.00 | 0.00 | 67 | 1014.0 |
| 20260504021955 | 12 | 153 | 6.4 | 8.0 | 0.00 | 0.00 | 0.00 | 61 | 1014.0 |
| 20260504020454 | 12 | 153 | 6.4 | 8.0 | 0.00 | 0.00 | 0.00 | 64 | 1014.0 |
| 20260504014954 | 12 | 153 | 6.4 | 8.0 | 0.00 | 0.00 | 0.00 | 64 | 1014.0 |
| 20260504013454 | 12 | 153 | 6.4 | 8.0 | 0.00 | 0.00 | 0.00 | 64 | 1014.0 |
| 20260504011953 | 13 | 126 | 1.6 | 3.2 | 0.00 | 0.00 | 0.00 | 57 | 1014.0 |
| 20260504010453 | 12 | 126 | 1.6 | 3.2 | 0.00 | 0.00 | 0.00 | 62 | 1014.0 |
| 20260504004953 | 12 | 140 | 4.8 | 4.8 | 0.00 | 0.00 | 0.00 | 62 | 1014.0 |
| 20260504003452 | 12 | 140 | 4.8 | 4.8 | 0.00 | 0.00 | 0.00 | 61 | 1014.0 |
| 20260504001952 | 13 | 297 | 6.4 | 6.4 | 0.00 | 0.00 | 0.00 | 55 | 1013.0 |
| 20260504000452 | 13 | 297 | 6.4 | 6.4 | 0.00 | 0.00 | 0.00 | 53 | 1013.0 |
| 20260503234951 | 13 | 297 | 6.4 | 6.4 | 0.00 | 0.00 | 0.00 | 60 | 1014.0 |
| 20260503233451 | 13 | 297 | 6.4 | 6.4 | 0.00 | 0.00 | 0.00 | 60 | 1014.0 |
| 20260503231951 | 14 | 112 | 3.2 | 4.8 | 0.00 | 0.00 | 0.00 | 51 | 1013.0 |
| 20260503230450 | 15 | 112 | 3.2 | 4.8 | 0.00 | 0.00 | 0.00 | 50 | 1013.0 |
| 20260503224950 | 14 | 112 | 3.2 | 4.8 | 0.00 | 0.00 | 0.00 | 58 | 1013.0 |
| 20260503223449 | 14 | 112 | 3.2 | 4.8 | 0.00 | 0.00 | 0.00 | 57 | 1013.0 |
| 20260503221949 | 15 | 141 | 4.8 | 11.3 | 0.00 | 0.00 | 0.00 | 48 | 1013.0 |
| 20260503220449 | 15 | 141 | 4.8 | 11.3 | 0.00 | 0.00 | 0.00 | 55 | 1013.0 |
| 20260503214948 | 15 | 141 | 4.8 | 11.3 | 0.00 | 0.00 | 0.00 | 55 | 1013.0 |
| 20260503213448 | 15 | 141 | 4.8 | 11.3 | 0.00 | 0.00 | 0.00 | 54 | 1013.0 |
| 20260503211948 | 16 | 157 | 12.9 | 33.8 | 0.00 | 0.00 | 0.00 | 46 | 1013.0 |
| 20260503210447 | 17 | 157 | 12.9 | 33.8 | 0.00 | 0.00 | 0.00 | 45 | 1013.0 |
| 20260503204947 | 16 | 157 | 12.9 | 33.8 | 0.00 | 0.00 | 0.00 | 51 | 1013.0 |
| 20260503203447 | 16 | 157 | 12.9 | 33.8 | 0.00 | 0.00 | 0.00 | 51 | 1013.0 |
| 20260503201946 | 17 | 157 | 14.5 | 38.6 | 0.00 | 0.00 | 0.00 | 42 | 1013.0 |
| 20260503200446 | 17 | 157 | 14.5 | 38.6 | 0.00 | 0.00 | 0.00 | 48 | 1013.0 |
| 20260503194946 | 17 | 157 | 14.5 | 38.6 | 0.00 | 0.00 | 0.00 | 48 | 1013.0 |
| 20260503193445 | 17 | 157 | 14.5 | 38.6 | 0.00 | 0.00 | 0.00 | 48 | 1013.0 |
| 20260503191945 | 18 | 147 | 14.5 | 37.0 | 0.00 | 0.00 | 0.00 | 41 | 1013.0 |
| 20260503190444 | 18 | 147 | 14.5 | 37.0 | 0.00 | 0.00 | 0.00 | 48 | 1013.0 |
| 20260503184944 | 18 | 147 | 14.5 | 37.0 | 0.00 | 0.00 | 0.00 | 48 | 1013.0 |
| 20260503183444 | 19 | 140 | 12.9 | 32.2 | 0.00 | 0.00 | 0.00 | 48 | 1013.0 |
| 20260503181943 | 21 | 141 | 12.9 | 29.0 | 0.00 | 0.00 | 0.00 | 35 | 1013.0 |
| 20260503180443 | 21 | 141 | 12.9 | 29.0 | 0.00 | 0.00 | 0.00 | 46 | 1013.0 |
| 20260503174943 | 21 | 141 | 12.9 | 29.0 | 0.00 | 0.00 | 0.00 | 46 | 1013.0 |
| 20260503173442 | 21 | 141 | 12.9 | 29.0 | 0.00 | 0.00 | 0.00 | 46 | 1013.0 |
| 20260503171942 | 22 | 141 | 14.5 | 27.4 | 0.00 | 0.00 | 0.00 | 32 | 1013.0 |
| 20260503170442 | 23 | 141 | 14.5 | 27.4 | 0.00 | 0.00 | 0.00 | 31 | 1013.0 |